Location: Newark
(52.3500°N, 175.9667°E)
Time: 21:19:22
(UTC+00:00)

Altair - Pass Details

Date: 28 April 2021
Orbit: 1501 x 1683 km, 47.2° (Epoch: 05 May)

Event Time Altitude Azimuth Distance (km) Brightness Sun altitude
Rises 23:44:07 0° 282° (WNW) 4,767 9.9 51.7°
Reaches altitude 10° 23:50:52 10° 249° (WSW) 3,726 9.8 51.8°
Maximum altitude 23:52:40 11° 238° (WSW) 3,658 9.8 51.9°
Drops below altitude 10° 23:54:28 10° 226° (SW) 3,699 10.0 51.9°
Sets 00:01:06 0° 192° (SSW) 4,640 10.6 52.0°
